User: anonymous   Login
Location: Gwatt
(46.7204°N, 7.6223°E)
Time: 22:39:57
(UTC+00:00)
Language:

Cosmos 1092 Rocket - Orbit

View from above orbital plane
View from above orbital plane
View from above satellite
View from above satellite

Ground track
Ground track

The orbit data is extracted from the following two-line orbital elements,

1 11327U 79030B   21127.26110352 -.00000052  00000-0 -68247-4 0  9996
2 11327  82.9470 321.4851 0028120 161.8707  12.1047 13.76959427114568
Epoch (UTC): 07 May 2021 06:15:59
Eccentricity: 0.0028120
inclination: 82.9470°
perigee height: 954 km
apogee height: 995 km
right ascension of ascending node: 321.4851°
argument of perigee: 161.8707°
revolutions per day: 13.76959427
mean anomaly at epoch: 12.1047°
orbit number at epoch: 11456

The dashed part of the orbit path shows where the satellite is in the earth's shadow,  

DLR